STARLINK-4164, 53282

Orbit data source: Space-Track

STARLINK-4164, 53282 is a payload satellite owned by SpaceX/Seattle (US) in LEO that was launched on Sun, 24 Jul 2022 UTC via an FALCON 9 launch vehicle from the Air Force Eastern Test Range (AFETR). Payload-class satellites include a variety of spacecraft equipped with specific instruments for various scientific and technological missions. These include communications satellites like Starlink; space stations such as the ISS; scientific satellites like the Hubble; Earth observation satellites from companies like Planet Labs, Umbra, and HawkEye 360; GPS; miniature CubeSats for education and research; and military/defense satellites.

Loading next visibility...
Identifier
53282, 2022-086AS
Orbit
LEO
Country
Flag of USUS
Related business
Manufacturer
SpaceX/Seattle
Mission
Operational Commercial Communications
Bus & Motor
STARLINK, Unknown motor
Mass
297 kg wet, ~275 kg dry
Launch date (UTC)
2022-07-24 (4 years ago)
Launch vehicle
FALCON 9
Launch site
Air Force Eastern Test Range (AFETR)
Object type
Payload
Rocket body
Debris
Shape & HBR
Box + 1 Pan, 10.1 m
Radar Cross Section
13.562 m², Large (>1 m²)

Expand to show TLE details & history
Last TLE update: 2 days ago

TLE from 2 days ago
0 STARLINK-4164
1 53282U 22086AS  26171.41668980  .00000540  00000-0  46343-4 0  9990
2 53282  53.1592  82.8012 0001100 100.7690 268.7835 15.13603987  5617
Epoch: 2026-06-20T10:00Z
TLE epoch observation values (Epoch: 2026-06-20T10:00:01.998Z)
Latitude
7.58959°
Longitude
29.85887°
Altitude
525.463 km
Speed
7.602 km/s
True Right ascension
05h 53m 59s
True Declination
7° 32' 35"
Sunlit
Object was in daylight at epoch
Visualization orbit readout
Latitude
Unknown
Longitude
Unknown
Altitude
Unknown
Speed
Unknown
Apparent Right ascension
Unknown
Apparent Declination
Unknown
Sunlit
N/A
Visualization observer readout
Local Sidereal Time
21:24:07
Azimuth
Unknown
Elevation
Unknown
Doppler factor
Unknown
Orbital elements
Apogee altitude
526.234 km
Perigee altitude
524.715 km
Semi-major axis
6,903.612 km
Eccentricity
0.00011
Inclination
53.1592°
RAAN
82.8012°
Arg. of periapsis
100.769°
True anomaly
268.7709°
Mean anomaly
268.7835°
Eccentric anomaly
268.7772°
Mean motion
3.7838 °/min
Orbital period
95.14 mins
BSTAR
0.000046343
Loading maneuver chart data...
Computing Atmospheric mass density...
Loading historical data...
Loading historical data...
Loading historical data...
Loading historical data...
Loading historical data...
Loading historical data...
Loading historical data...

Documentation

Showing up to 5 results
|